Location: Helsinki
(60.1699°N, 24.9384°E)
Time: 14:07:48
(UTC+02:00)

Tiros 1 - Pass Details

Date: 10 October 2022
Orbit: 629 x 662 km, 48.4° (Epoch: 07 December)

Event Time Altitude Azimuth Distance (km) Brightness Sun altitude
Rises 23:29:39 0° 229° (SW) 2,990 - -33.6°
Reaches altitude 10° 23:32:35 10° 211° (SSW) 2,079 - -33.8°
Maximum altitude 23:35:52 18° 168° (SSE) 1,591 - -34.0°
Drops below altitude 10° 23:39:08 10° 125° (SE) 2,078 - -34.2°
Sets 23:42:04 0° 107° (ESE) 2,988 - -34.3°
